Wind_Gust
7 7 12 16 19 18 14 14 19 20 14 12 8 10 16 18 22 21 15 14 8 10 13 17 19 23 22 21 23 24 12 10 11 14 16 16 17 18 18 20 20 19 22 13 15 14 14 13 10 9 10 11 10 12 14 16 15 16 19 17 16 14 14 15 14 14 15 13 11 6 11 12 10 11 9 10 8 10 10 10 10 11 11 10 10 9
8 8 17 21 22 21 18 11 8 9 11 16 14 10 18 13 19 25 16 13 14 8 9 13 13 17 23 22 24 17 16 19 19 18 16 18 19 20 19 20 19 18 7 12 10 11 12 12 11 11 12 13 17 14 15 18 18 17 16 18 16 13 15 16 17 17 16 14 16 14 15 12 12 11 11 9 9 10 9 10 10 10 11 11 10 9
5 15 25 21 22 16 14 9 7 11 19 24 24 17 13 21 19 25 16 8 11 10 16 6 12 16 21 25 17 22 29 30 27 25 28 26 21 20 20 19 16 13 14 13 14 15 16 15 14 15 14 14 17 17 18 16 16 15 16 15 15 15 17 16 16 16 17 12 12 13 13 13 11 6 8 10 9 9 10 9 10 11 11 12 10 10
13 17 27 27 13 8 18 13 10 13 14 19 20 14 21 15 7 18 14 10 11 9 8 5 6 14 11 8 14 21 27 22 19 19 16 18 24 24 25 23 22 19 20 20 19 18 17 18 18 15 16 16 13 15 14 15 17 16 16 14 15 16 15 15 15 16 12 12 10 7 10 6 8 9 7 7 7 8 10 9 10 10 11 11 11 10
22 24 17 9 9 10 18 19 10 14 18 12 16 15 15 13 14 16 14 12 8 9 5 11 13 14 11 11 15 17 12 10 14 11 10 13 17 15 14 13 22 24 23 22 18 17 18 19 21 20 17 15 17 17 17 17 18 18 17 16 17 16 16 14 15 14 11 11 8 9 7 8 9 9 9 10 7 7 9 9 8 11 11 12 13 10
19 26 23 17 19 13 16 20 17 11 13 13 11 19 18 14 11 13 10 11 18 15 8 9 14 13 11 10 17 14 13 17 18 18 19 19 13 10 15 17 13 19 22 27 26 25 22 21 17 14 15 16 16 17 17 16 16 14 15 14 13 12 12 13 13 13 14 15 15 13 13 13 11 12 12 12 14 10 12 13 7 7 9 13 11 10
22 23 10 19 24 22 18 21 19 13 14 8 17 16 17 15 11 6 6 7 10 15 12 6 6 19 14 10 11 13 20 26 18 18 23 18 17 17 16 17 20 21 17 14 19 20 20 19 19 19 19 19 17 17 12 12 13 13 13 13 14 14 13 13 12 13 14 13 13 17 17 16 17 16 12 9 10 13 8 10 11 10 8 13 13 8
8 11 7 5 4 4 7 15 15 16 13 16 12 12 8 7 7 10 7 6 12 7 11 11 9 12 14 17 10 19 22 21 16 17 19 19 18 19 17 18 19 22 21 22 21 21 22 23 24 24 20 18 19 14 12 13 12 15 15 14 14 12 13 13 13 14 16 18 16 14 14 15 15 16 15 12 11 9 11 12 10 9 10 10 12 12
6 17 9 8 8 7 11 13 9 12 18 16 6 13 10 10 11 7 6 7 6 2 17 16 6 12 12 18 10 11 9 15 17 20 22 21 19 20 21 21 19 20 22 23 23 23 23 23 20 18 18 15 14 14 16 15 14 12 13 13 12 12 13 12 13 15 14 14 16 14 13 12 11 14 14 12 10 12 10 13 8 9 9 9 8 11
12 14 10 9 8 18 13 11 13 15 10 12 10 11 11 10 8 5 7 9 6 9 12 14 7 14 14 14 14 7 11 21 26 24 25 21 22 21 21 18 17 16 18 20 22 22 22 20 18 17 16 15 16 14 12 11 11 12 12 14 13 13 13 14 14 15 13 12 14 14 14 14 12 12 10 11 14 13 10 12 11 10 10 10 9 8
16 12 7 13 13 14 11 10 13 15 12 7 10 8 11 12 10 8 13 8 11 8 14 16 8 9 15 13 12 14 20 24 21 18 17 19 19 16 17 20 21 21 20 21 19 18 18 17 17 16 17 16 12 10 12 13 14 14 15 14 15 14 12 11 13 13 14 12 14 14 14 15 16 15 18 15 10 10 10 12 11 10 11 10 12 10
13 10 15 12 13 11 5 13 5 5 4 7 10 8 14 16 16 12 11 11 8 15 16 14 11 8 12 14 14 12 11 9 16 20 21 23 24 24 20 22 23 22 21 20 20 19 17 15 14 14 16 16 14 13 14 14 14 15 15 16 15 12 12 12 12 12 13 13 13 13 14 14 16 20 20 21 19 17 17 14 15 11 9 9 9 9
13 16 9 11 9 10 11 6 16 9 12 12 9 16 9 16 16 14 13 16 8 13 11 8 11 8 10 18 15 15 13 14 14 19 21 22 23 25 24 25 26 24 19 20 20 19 19 21 20 18 16 15 15 17 16 16 15 14 13 15 17 14 12 14 13 14 13 12 13 15 17 18 17 16 16 20 21 19 19 17 13 11 12 10 9 9
16 14 11 13 9 12 9 13 15 14 12 10 7 9 11 7 7 10 12 10 13 16 11 6 6 12 14 17 10 12 16 16 15 18 21 27 30 29 27 25 22 22 21 19 18 20 22 21 20 20 19 19 18 16 18 15 16 14 15 15 17 16 13 11 11 14 14 13 13 13 15 17 18 18 17 16 17 16 15 15 16 15 15 15 14 12
8 22 12 10 9 11 13 8 4 5 6 9 9 14 15 15 15 12 11 15 15 16 17 7 12 17 7 9 9 13 14 16 13 13 19 26 29 31 30 23 16 14 16 20 21 23 23 22 21 22 21 20 19 18 18 17 15 15 15 16 16 15 13 13 14 13 15 14 13 12 14 16 13 15 16 19 16 16 16 16 17 18 17 14 12 13
7 17 15 6 5 8 10 6 7 10 12 6 8 12 12 12 15 12 17 11 12 14 14 9 19 12 16 10 12 9 15 24 19 22 23 25 23 19 21 20 19 18 20 21 21 22 21 21 19 19 19 22 24 21 19 17 17 18 20 18 19 20 18 16 15 15 17 15 14 14 15 17 20 19 18 15 14 14 15 15 16 18 15 13 12 10
7 10 6 14 8 14 9 8 11 8 12 14 11 12 13 13 15 10 8 4 4 11 22 10 16 15 16 12 18 20 25 26 27 25 23 21 23 18 18 18 16 18 21 21 22 21 20 17 19 20 23 25 23 20 22 23 22 23 21 19 18 16 15 17 18 17 15 15 15 15 16 16 15 18 18 18 16 15 13 14 12 12 12 11 11 12
9 15 9 11 11 6 8 3 12 14 7 11 11 13 9 5 9 9 13 10 8 12 25 5 10 12 13 26 16 23 24 28 28 27 20 23 19 20 15 15 16 18 16 16 17 18 21 22 23 25 25 23 24 24 23 24 22 21 22 21 20 22 20 22 23 21 19 17 16 16 16 16 17 17 16 15 15 13 15 13 12 10 10 12 13 12
8 11 9 3 6 12 12 9 13 13 11 13 9 6 17 11 16 11 9 14 18 18 21 14 5 11 7 16 17 19 20 24 28 27 28 29 24 20 16 12 17 19 12 11 14 17 21 25 29 27 23 23 22 23 25 25 22 20 26 26 24 24 23 22 22 21 19 17 16 16 17 17 18 16 16 15 14 16 17 17 14 13 13 11 10 11
9 7 14 9 10 10 10 15 11 22 18 8 8 13 5 13 6 12 10 11 10 18 12 21 9 18 12 10 9 17 15 19 23 24 23 25 24 23 20 13 8 10 15 21 15 19 24 22 23 24 25 26 26 25 24 23 25 24 24 23 23 24 24 23 21 21 23 23 20 22 20 20 21 21 21 18 18 17 17 16 15 14 11 14 11 11
7 4 8 16 14 7 13 12 6 6 15 22 22 14 17 12 8 9 7 7 11 15 11 14 25 14 11 12 14 11 13 21 18 19 15 18 20 21 20 19 16 13 13 16 21 24 22 22 23 22 23 26 24 24 25 24 25 25 25 24 25 23 22 22 24 26 29 28 27 21 23 24 22 19 15 14 15 17 16 14 13 13 14 9 11 11
12 9 6 13 15 9 9 6 3 6 5 4 10 8 10 11 18 14 18 11 9 13 16 16 28 18 18 10 15 14 10 21 19 16 15 15 18 19 21 21 20 19 19 24 30 25 23 22 24 22 19 29 29 26 25 25 27 25 22 23 23 25 23 26 28 29 31 30 30 27 21 16 13 13 12 13 13 13 14 12 12 12 8 10 13 10
7 7 9 6 5 9 11 14 7 9 6 11 12 6 7 7 13 10 10 13 10 14 7 9 15 24 19 12 10 7 9 11 15 16 18 18 16 17 20 19 21 20 19 22 23 24 24 21 20 21 22 23 25 26 26 25 24 24 21 23 24 26 24 25 27 27 26 20 16 15 14 14 14 14 13 14 13 13 13 13 12 11 12 13 11 10
9 12 13 9 13 12 12 12 8 14 10 11 13 7 9 8 4 8 11 10 12 11 9 11 18 28 15 10 16 11 10 8 8 13 17 19 17 18 19 20 21 22 24 24 21 18 19 16 16 18 19 21 20 23 26 26 22 19 20 23 24 23 26 26 22 18 16 17 18 16 14 15 14 13 13 13 14 15 15 14 12 11 12 12 11 13
17 11 9 15 22 21 16 20 16 12 14 10 11 15 6 5 7 6 7 6 8 10 12 11 29 29 17 15 19 26 32 31 27 23 14 17 19 19 19 19 20 21 23 26 26 24 21 21 21 23 26 27 26 22 22 21 21 23 27 22 24 25 23 19 18 19 20 21 24 24 20 14 14 15 17 19 16 16 18 18 15 12 13 11 11 10
9 7 10 10 13 16 23 19 18 20 17 17 8 10 13 7 6 13 8 9 12 10 4 16 26 20 19 19 20 21 20 21 21 20 20 14 14 19 22 22 21 20 21 21 25 27 26 24 22 19 16 18 21 24 24 23 22 21 23 27 22 19 19 21 19 22 23 24 21 17 19 21 21 20 18 16 15 15 14 13 11 11 10 11 12 10
8 6 5 10 12 14 15 11 10 6 10 12 15 11 15 15 10 6 7 10 14 11 16 21 20 27 32 27 20 19 17 18 22 21 23 22 20 21 18 20 19 18 18 19 19 21 24 28 27 22 20 20 19 20 23 24 23 22 22 21 18 20 20 21 22 24 21 19 20 19 17 15 15 15 13 12 12 9 8 9 10 10 11 10 11 10
9 10 9 6 7 9 8 6 8 6 11 12 11 13 9 9 8 10 15 23 11 11 30 24 13 19 28 30 23 16 18 18 21 20 19 20 21 21 19 17 19 23 24 24 25 26 23 20 21 23 23 23 22 22 21 21 24 25 21 19 18 18 19 18 18 19 18 15 13 11 12 10 9 9 9 8 8 9 10 10 10 9 10 8 9 10
7 8 6 8 9 11 7 8 7 10 9 13 14 12 11 10 11 15 11 14 11 15 30 28 26 22 25 22 18 15 16 20 21 22 19 16 15 19 20 21 22 23 24 26 26 23 22 23 21 22 23 25 22 21 20 20 20 18 18 18 18 15 17 14 11 11 11 12 13 15 13 12 12 13 14 13 13 12 11 10 9 11 12 14 13 11
11 7 5 6 16 18 13 14 12 11 14 18 21 17 9 8 15 13 15 12 15 16 19 23 23 26 23 16 19 21 18 15 17 16 19 25 24 21 18 18 20 20 22 23 23 23 23 23 22 25 24 23 22 21 20 20 19 19 18 18 18 19 16 17 18 18 17 17 14 13 14 14 13 13 13 16 16 14 17 16 14 16 12 14 12 11
13 20 7 10 15 22 12 11 11 10 9 22 23 14 8 11 15 12 12 16 12 11 16 19 19 26 15 17 19 18 18 20 24 25 23 19 21 22 19 19 20 20 20 21 22 22 21 23 23 23 23 22 21 20 20 19 18 19 20 18 18 18 16 18 19 22 17 18 12 12 13 15 16 17 18 14 15 16 17 15 12 11 11 9 10 9
6 19 8 10 15 26 11 6 8 6 13 20 25 12 17 18 16 13 19 12 9 14 16 14 16 17 19 22 18 15 23 21 16 18 21 22 22 22 21 20 20 21 21 21 22 22 22 23 23 22 21 20 20 21 20 18 18 20 18 16 17 15 16 19 17 18 16 15 15 17 18 14 13 15 12 13 14 12 10 9 9 8 8 9 9 10
10 10 13 5 11 26 22 7 5 7 13 27 20 19 22 8 9 12 10 8 7 5 7 10 16 7 13 14 18 23 20 15 18 20 20 23 20 18 20 20 19 20 20 20 22 22 21 20 19 20 20 20 21 21 18 17 20 19 15 18 13 16 17 16 14 13 13 12 12 12 10 10 10 11 15 11 10 10 6 7 7 7 8 10 12 11
6 10 14 7 15 20 20 7 4 12 17 31 12 7 7 11 15 15 14 10 7 10 10 7 6 7 10 16 17 17 14 12 10 11 12 16 17 18 19 20 19 17 19 20 19 19 18 19 20 20 18 17 17 18 17 18 17 15 13 12 12 14 12 15 13 12 12 13 11 11 12 15 16 14 11 8 8 7 9 9 8 9 10 11 8 9
6 6 9 10 13 18 16 9 16 19 36 12 6 6 5 7 13 13 13 11 7 10 9 9 10 13 13 8 10 10 8 10 11 20 21 20 16 16 17 18 19 19 19 18 19 18 17 17 17 19 19 18 16 14 15 14 11 10 11 10 12 12 14 15 15 15 14 15 13 13 14 13 11 10 8 8 8 7 12 8 8 8 9 10 10 10
10 11 11 11 13 11 13 13 19 30 16 5 6 5 7 16 12 17 10 12 9 6 4 6 7 8 11 14 14 12 6 10 9 17 17 16 15 14 15 14 13 15 17 14 13 14 14 16 15 16 15 14 15 13 12 9 9 10 10 10 14 14 14 15 14 13 11 16 14 13 10 9 8 8 9 9 8 8 9 9 9 10 11 11 11 11
18 9 10 16 11 19 13 12 29 18 31 25 14 9 11 9 9 8 10 10 6 5 5 4 6 9 12 12 13 12 10 6 13 14 13 14 10 9 9 11 12 14 14 15 13 16 14 12 12 13 10 9 9 8 9 8 11 12 13 15 14 15 13 13 12 13 13 13 9 9 9 9 9 9 10 8 8 9 9 10 11 11 10 12 13 13
12 17 13 15 19 17 14 18 20 16 27 17 8 6 4 5 9 7 11 10 4 7 6 5 5 8 9 10 13 13 7 10 15 13 10 11 9 10 12 12 13 13 13 15 15 14 15 15 13 13 12 11 11 12 11 10 10 12 10 10 10 9 10 13 15 9 8 8 9 9 9 10 9 9 8 7 9 11 11 11 11 12 12 14 14 15
9 13 11 18 14 8 10 18 22 23 26 11 10 8 11 11 10 5 11 8 5 5 7 8 7 7 6 8 10 7 15 16 14 14 15 12 15 13 14 17 16 15 15 14 15 18 18 18 15 15 13 15 14 17 12 10 12 10 10 10 9 7 8 9 9 9 10 10 9 8 8 8 8 9 9 9 11 11 12 13 14 13 12 14 13 17
14 12 10 8 13 16 13 17 22 24 23 4 10 10 11 14 6 10 11 15 4 8 7 6 9 7 8 7 5 6 7 13 17 18 12 13 15 16 15 18 21 20 19 17 14 15 16 15 13 13 14 15 19 16 11 8 7 9 10 11 7 8 10 12 12 12 10 9 8 8 9 7 8 8 9 11 12 12 13 13 13 13 13 13 16 18
10 11 9 18 15 16 12 19 15 25 13 5 8 10 14 8 8 10 18 8 6 6 7 7 7 8 6 7 5 12 10 12 16 19 15 14 15 19 19 17 18 17 19 18 19 16 15 15 13 16 17 18 16 14 10 7 7 11 11 9 8 10 14 13 10 9 10 10 9 8 9 9 9 12 12 12 13 13 13 12 13 13 14 17 18 18
8 7 11 4 8 16 14 16 26 16 12 6 11 6 12 14 17 11 11 7 5 7 7 8 8 9 7 9 10 10 14 13 13 14 16 16 16 16 17 17 17 17 17 15 16 14 14 14 15 15 15 16 18 15 11 7 9 12 10 8 10 13 11 8 9 9 8 9 10 9 10 11 12 12 13 12 12 14 14 12 14 15 15 17 17 19
17 14 13 12 14 8 9 12 11 20 8 9 7 9 12 12 13 10 7 6 9 7 7 7 9 10 7 10 11 13 16 18 17 19 19 19 18 19 18 17 17 17 18 18 18 17 14 13 16 16 18 18 16 13 10 6 9 11 9 10 13 12 9 9 9 9 9 9 9 10 11 11 10 12 11 12 13 14 15 13 14 15 17 17 18 19
8 13 15 15 16 20 15 24 23 14 8 4 11 9 13 9 7 6 7 8 7 8 6 6 8 9 9 12 15 16 16 18 19 18 19 18 19 18 18 17 16 16 16 16 15 16 13 15 16 17 17 18 15 11 8 8 10 8 8 13 13 9 8 8 9 8 8 8 9 9 10 9 10 10 10 12 13 12 14 14 15 16 17 17 17 18
9 13 11 13 9 17 20 14 9 5 7 4 7 6 7 9 6 7 8 10 10 10 8 7 10 11 11 14 15 17 19 16 19 19 18 19 19 18 18 19 18 18 19 19 20 17 12 16 18 19 18 19 13 11 7 6 7 8 8 9 7 9 11 10 8 7 8 9 9 9 10 8 10 10 11 12 11 12 14 15 15 17 15 15 16 16
4 8 5 8 14 7 9 15 6 5 7 10 8 7 8 8 8 6 8 9 8 11 8 12 10 13 13 12 15 14 16 17 19 20 18 17 18 18 17 16 16 16 16 15 15 15 14 13 14 15 18 15 9 10 7 6 7 9 13 10 10 10 10 8 7 7 9 9 8 10 9 9 11 11 12 12 12 12 13 15 16 16 16 16 16 15
7 8 10 13 7 10 28 5 9 12 9 10 17 19 15 10 10 7 9 9 11 14 16 13 14 13 15 15 14 17 19 18 18 19 19 18 18 18 18 18 18 17 16 17 17 13 14 12 14 15 12 7 8 11 13 15 15 13 13 14 15 13 9 8 8 7 7 9 10 10 9 10 11 12 12 11 11 11 14 15 15 15 16 15 14 14
12 5 14 8 5 12 23 13 15 10 11 13 12 18 24 19 12 9 11 12 15 15 15 17 16 16 13 16 16 17 18 17 17 19 19 18 19 19 18 18 18 17 16 13 14 12 12 13 13 14 12 17 18 17 14 12 13 13 13 14 13 11 7 6 5 6 8 10 10 11 11 11 12 14 12 12 12 13 15 15 14 14 14 14 14 15
11 12 19 6 13 14 16 20 22 14 15 17 14 11 12 12 16 19 21 22 20 19 18 17 12 17 15 18 16 15 17 19 19 18 18 19 19 18 19 19 17 16 16 16 15 11 13 15 16 15 14 17 15 13 10 9 13 13 12 12 9 6 6 4 6 7 8 10 10 12 11 12 11 12 13 13 13 14 14 14 15 15 15 13 12 13
9 23 8 7 16 20 25 25 8 22 26 17 17 18 18 17 15 17 19 21 20 20 19 19 21 18 14 14 15 15 17 20 20 17 17 18 18 18 19 18 16 15 16 15 13 13 18 15 14 15 17 17 16 11 11 10 9 9 8 7 4 4 2 5 6 7 10 10 10 11 11 11 11 11 12 13 14 15 15 10 13 14 15 17 13 13
18 20 12 15 20 28 17 13 13 14 16 20 24 24 23 18 11 12 16 20 21 20 18 17 20 22 22 19 13 14 17 19 21 18 16 16 18 18 17 16 16 15 15 13 11 12 11 13 18 20 20 22 10 8 8 10 8 6 5 3 1 2 3 4 7 9 11 11 10 12 12 11 12 12 12 13 12 14 16 16 11 11 16 15 15 13
Wind_Speed
1 2 5 7 7 5 6 8 8 5 3 1 1 1 4 4 9 6 3 5 2 1 4 4 8 9 11 8 3 4 3 5 4 7 8 6 8 9 9 10 10 10 12 3 5 6 7 8 6 6 6 6 7 7 8 9 9 9 10 9 10 8 8 8 8 7 7 6 5 3 6 7 6 6 6 6 5 6 6 6 7 7 6 7 6 6
3 2 8 8 9 8 6 4 3 2 1 3 3 2 8 2 8 9 5 6 0 0 3 2 4 9 13 3 3 4 6 11 11 11 9 10 11 10 10 11 11 10 0 3 4 5 5 6 7 6 6 7 9 9 9 11 11 10 10 11 10 8 9 9 10 9 8 8 8 7 7 6 6 6 6 5 5 6 5 6 6 6 7 7 6 6
1 4 10 5 3 3 3 4 5 5 5 2 3 1 4 8 6 11 5 4 1 4 7 1 2 10 11 6 4 8 12 10 10 9 10 7 8 9 9 10 8 6 7 4 5 4 6 6 7 7 7 8 10 9 10 9 9 9 9 9 9 9 9 9 9 9 8 6 7 7 5 7 4 2 4 6 6 5 6 6 6 6 7 7 6 7
3 7 12 5 4 3 2 3 4 2 2 3 1 1 7 3 3 7 6 2 4 1 2 3 4 7 4 4 4 5 5 3 3 6 7 7 9 12 13 7 7 8 5 7 7 7 6 7 7 7 8 8 7 7 7 8 11 9 9 9 9 9 9 9 9 9 7 8 6 4 6 4 4 4 4 3 3 4 6 6 6 6 7 7 7 6
9 4 2 4 4 4 3 1 3 2 6 3 5 5 5 6 6 9 6 3 2 1 0 2 6 7 6 5 4 2 3 4 6 4 5 8 11 8 3 4 5 7 6 6 5 5 7 8 10 11 8 6 9 9 10 10 10 9 11 10 10 10 10 8 9 9 6 6 4 4 4 5 5 5 5 5 3 3 4 5 5 6 7 7 8 6
10 11 2 5 3 3 4 2 5 6 4 2 7 13 11 8 7 5 5 3 4 2 3 4 4 2 5 6 7 5 4 4 2 4 9 10 5 2 6 8 5 7 7 9 9 9 9 8 6 6 8 9 8 10 10 10 10 9 9 9 8 7 7 8 8 8 8 8 8 7 7 6 5 5 6 6 7 5 6 7 4 4 6 8 7 6
7 2 4 4 4 1 1 3 3 6 4 1 6 11 11 7 3 2 4 2 2 0 2 2 1 4 6 5 5 7 7 9 1 4 9 6 6 5 9 7 6 7 6 5 6 6 8 8 8 8 10 10 10 10 8 7 8 8 8 8 9 8 7 7 7 8 8 8 7 10 10 9 9 8 5 5 6 7 4 5 6 5 3 8 8 6
1 2 3 1 2 1 0 4 3 8 6 3 4 7 5 4 4 4 4 4 2 1 1 6 3 1 4 5 3 7 5 8 11 6 6 8 6 7 7 7 6 7 8 9 10 10 10 10 12 14 12 11 11 7 7 8 8 10 10 9 9 7 7 7 7 9 9 10 9 9 8 8 9 9 8 7 6 5 6 6 6 5 4 6 7 7
3 1 1 0 0 1 4 5 3 7 5 6 1 7 6 7 5 3 4 3 0 1 5 4 2 2 2 7 4 5 6 10 9 9 11 9 5 6 8 9 8 8 9 10 11 12 12 12 12 10 10 7 6 8 9 8 7 6 6 7 7 8 8 8 9 9 9 7 7 7 5 5 4 5 6 5 4 6 5 7 4 5 5 5 5 7
1 1 1 2 2 4 6 3 9 9 2 4 3 8 7 7 6 3 3 5 0 3 4 2 2 1 3 6 8 3 3 8 8 12 11 10 11 9 8 9 8 5 6 7 9 6 7 7 7 5 4 5 5 4 4 4 5 5 6 7 8 8 7 8 9 9 9 6 4 6 8 9 5 4 5 5 6 5 5 7 6 5 6 6 6 5
3 5 4 3 4 4 4 3 6 10 6 3 5 3 3 7 3 3 5 3 4 1 2 2 3 2 0 4 3 6 6 4 11 10 10 12 13 12 8 7 7 6 4 4 3 2 3 3 4 5 5 4 4 4 5 5 5 5 6 7 8 9 6 5 7 7 7 7 7 6 2 2 5 6 8 7 5 5 5 7 6 6 6 6 7 6
6 1 2 2 0 3 1 1 3 1 1 2 2 2 1 4 6 2 4 4 2 2 2 3 2 1 1 2 8 4 6 5 4 7 12 15 15 14 11 10 7 4 3 1 1 2 4 4 4 5 6 7 7 7 7 6 6 7 7 7 8 6 6 6 6 6 7 7 8 9 7 7 7 8 9 11 11 10 10 9 9 7 5 6 5 5
3 2 2 5 2 4 2 2 2 5 5 4 5 4 3 4 4 3 3 2 1 3 2 1 2 3 1 2 2 7 6 7 6 3 7 9 12 13 13 10 7 4 1 2 3 5 5 6 8 8 8 7 7 8 9 9 8 7 7 7 8 8 7 8 7 8 7 7 7 8 11 12 10 10 10 11 12 11 10 9 8 7 7 6 5 5
5 2 5 5 4 2 2 5 4 1 5 4 4 4 3 0 1 2 2 1 3 6 4 2 1 1 1 1 0 2 5 5 4 3 2 4 7 10 12 10 8 5 1 2 4 5 6 7 7 7 6 5 4 6 9 9 10 9 8 8 9 9 7 6 6 7 8 8 8 7 8 8 8 8 9 9 10 9 9 8 8 7 5 7 8 7
2 5 4 4 1 4 2 2 1 2 1 0 2 5 4 6 2 2 3 4 4 4 3 4 1 2 4 1 1 4 5 3 2 1 4 6 7 7 6 7 8 5 2 1 3 4 6 7 7 6 6 6 11 13 10 7 7 8 9 9 10 9 7 7 7 6 8 7 7 4 3 4 6 8 8 8 8 9 9 9 11 11 10 9 7 7
1 4 5 3 3 3 3 2 1 2 2 0 2 3 5 1 5 0 3 2 1 0 2 0 2 3 5 2 2 4 4 6 10 13 13 15 12 12 14 13 10 7 3 0 1 3 4 5 7 8 9 12 13 13 10 10 8 8 9 9 10 10 8 7 6 7 7 6 5 2 6 7 6 6 7 8 7 8 7 7 8 10 9 8 7 6
1 0 2 8 4 6 4 3 4 1 0 2 2 1 1 3 8 5 1 1 2 5 3 0 6 1 5 3 4 8 11 12 12 13 12 12 12 10 11 11 11 9 6 3 2 3 4 5 8 9 10 10 7 5 8 7 5 4 2 1 2 6 8 6 5 4 1 3 4 6 6 7 8 8 9 9 9 6 3 4 5 6 7 7 7 7
3 2 4 5 3 1 2 1 0 4 2 2 3 3 0 2 3 3 1 2 4 1 4 1 1 4 2 3 6 11 13 12 11 11 8 8 9 11 7 6 8 8 7 7 6 4 5 7 9 9 9 7 2 3 4 6 5 5 5 8 9 9 10 8 5 2 6 7 3 5 7 7 8 9 10 9 8 7 8 8 7 6 6 7 7 7
2 1 2 1 2 7 6 3 4 6 4 3 2 1 1 1 0 4 2 1 0 1 2 2 1 3 2 1 5 9 8 11 10 8 11 12 11 9 8 7 7 7 7 7 6 6 6 7 8 8 4 2 4 6 7 6 8 8 8 8 8 11 12 12 12 11 9 8 8 7 10 11 11 10 10 9 9 9 10 10 9 8 8 6 6 6
2 2 3 3 1 3 3 5 2 7 10 2 1 2 0 3 1 0 1 2 5 2 2 5 2 4 4 3 3 1 4 5 8 9 8 7 7 9 8 7 6 6 6 8 8 8 7 7 5 4 4 6 6 5 5 7 7 10 9 11 11 8 6 7 10 12 14 14 12 14 13 13 13 13 13 11 11 10 11 10 9 9 7 8 7 6
0 1 1 4 3 2 3 3 1 1 2 6 7 4 4 2 2 3 1 1 2 3 4 2 2 4 3 6 5 3 3 5 5 7 7 9 10 10 10 11 10 9 6 5 6 9 11 10 5 4 3 4 3 3 4 7 9 7 6 9 9 10 10 12 13 13 15 14 16 14 14 14 12 11 9 8 8 9 9 8 8 8 7 5 7 7
2 2 1 5 6 4 2 1 1 1 2 2 4 2 2 2 0 0 4 2 2 3 2 3 8 5 6 2 5 3 1 2 5 7 8 10 12 12 13 14 12 11 12 9 8 6 9 10 8 5 3 2 1 3 3 3 3 6 9 9 9 9 11 11 11 12 10 6 5 7 5 3 1 3 4 6 5 5 5 5 6 6 4 7 7 6
2 2 4 1 0 3 2 5 1 2 3 5 5 2 2 3 4 4 2 3 1 1 3 2 1 8 4 4 3 1 2 2 5 5 8 7 8 10 12 13 14 13 12 12 11 11 9 7 7 7 5 4 4 5 4 5 6 6 5 6 7 8 11 10 9 7 7 9 9 8 5 5 4 3 4 5 5 6 6 6 6 4 6 5 4 4
3 3 2 3 7 6 3 2 2 4 1 5 5 3 4 4 1 1 1 2 1 2 1 1 2 5 1 2 4 3 2 1 4 7 10 10 9 11 13 14 14 14 15 16 13 11 11 11 8 7 7 6 5 4 4 4 5 5 5 5 5 8 6 3 5 4 5 6 5 3 5 5 5 5 4 5 5 6 5 4 4 4 5 5 4 5
0 1 3 2 1 6 5 4 3 3 6 3 1 2 1 2 4 1 3 1 0 5 6 5 10 1 4 1 6 9 7 9 14 14 8 10 12 11 11 11 11 13 14 17 17 15 14 14 14 11 9 8 8 7 5 5 5 4 4 3 4 3 2 1 1 1 4 8 11 12 10 5 2 3 5 6 6 7 7 7 6 5 6 6 6 5
3 1 2 1 1 1 1 1 3 2 1 2 1 2 3 0 1 5 1 2 1 2 2 3 5 5 4 5 10 13 14 13 13 12 12 8 7 11 13 13 11 11 12 13 16 17 16 12 11 12 11 9 7 6 5 4 4 4 4 3 2 3 3 2 4 2 4 4 3 4 5 4 4 6 7 7 7 7 7 6 6 6 5 6 6 5
2 1 2 4 5 7 7 4 3 1 3 2 3 3 4 0 2 2 2 2 5 3 4 8 2 6 9 8 9 9 7 6 8 10 10 11 12 12 9 11 11 10 10 11 10 11 14 18 17 14 13 12 11 9 6 3 3 2 2 2 1 2 2 2 2 1 2 3 2 4 4 5 6 5 5 5 4 3 3 3 3 3 3 1 2 3
3 1 1 2 4 5 5 3 3 2 2 4 5 7 3 3 3 3 5 6 5 0 12 0 6 5 5 0 4 5 6 7 7 7 10 11 10 10 8 5 7 10 12 12 14 15 13 11 13 15 14 14 12 12 12 11 10 7 7 6 6 4 2 2 2 1 1 1 2 3 4 3 4 4 4 4 5 6 6 7 6 6 5 5 5 2
3 1 1 2 3 2 4 4 3 1 4 5 6 6 6 6 3 5 6 7 5 6 12 2 4 2 6 2 1 2 2 4 6 6 5 5 5 5 7 10 10 10 9 11 10 10 11 12 11 12 13 12 13 14 13 12 11 11 10 10 9 9 9 6 7 7 7 8 7 6 7 7 7 8 8 8 8 7 7 7 6 6 6 6 5 3
3 0 3 2 3 4 5 6 5 7 4 2 5 6 6 6 9 9 8 3 8 8 8 8 7 7 6 1 1 1 1 1 3 3 3 2 4 4 4 5 7 8 9 9 8 6 6 7 7 8 9 11 11 12 11 11 11 10 11 10 10 12 10 10 11 10 10 10 8 8 8 8 8 7 7 7 7 6 6 7 7 7 6 5 4 3
4 2 4 1 1 4 5 5 1 3 5 4 5 5 6 7 7 6 3 4 2 5 9 11 8 9 3 2 2 1 2 2 1 3 4 4 6 6 7 7 7 7 6 6 5 6 4 4 5 5 7 7 8 7 7 7 6 7 9 8 9 10 8 10 10 10 9 8 6 6 6 6 6 6 6 5 6 6 6 6 4 3 2 2 3 3
2 2 2 1 2 6 1 2 1 1 2 5 5 6 10 7 5 5 5 5 5 7 3 1 4 4 2 3 4 2 1 1 2 2 3 3 4 4 5 7 7 7 7 6 6 5 6 6 6 5 4 3 3 3 4 5 4 5 5 4 5 5 6 8 7 7 6 5 4 5 5 5 5 6 5 5 5 4 3 2 1 0 2 3 4 4
3 4 1 0 1 5 6 2 3 5 6 8 8 11 14 5 6 1 2 3 4 2 1 5 8 3 4 2 1 1 1 2 2 2 3 3 3 3 3 3 4 5 5 5 5 5 5 5 4 4 3 2 1 0 0 2 4 3 3 3 3 4 6 6 6 6 6 4 3 2 4 3 3 3 3 2 3 2 2 1 2 3 2 4 5 4
2 4 2 2 2 2 2 4 2 4 4 8 4 1 3 4 9 4 4 5 2 2 2 2 2 2 1 1 0 4 3 2 2 3 4 4 4 4 4 3 4 5 5 5 5 5 5 5 5 5 5 3 3 3 2 2 1 3 2 2 1 1 1 2 5 5 6 8 7 6 4 4 3 3 4 3 3 3 3 3 4 5 5 5 5 5
3 3 3 2 1 2 1 2 4 5 10 5 3 2 3 2 9 5 2 0 0 1 2 2 1 1 1 2 2 3 4 6 4 4 4 4 3 3 5 6 6 5 6 7 7 6 6 6 6 6 6 6 5 3 4 3 2 1 1 1 2 2 1 3 2 2 4 1 3 3 3 4 4 4 3 3 4 4 4 5 4 5 5 5 6 6
5 5 3 0 2 1 2 1 1 7 3 3 2 2 3 9 5 9 1 1 3 3 3 2 1 3 3 4 4 3 2 6 5 4 4 4 2 3 5 7 8 8 9 9 8 9 8 8 8 7 7 4 3 5 3 4 3 3 3 2 2 1 2 1 1 0 0 1 2 4 4 5 5 5 5 6 5 5 5 5 6 6 6 6 6 6
8 3 3 2 1 3 3 4 8 4 6 3 0 0 1 2 3 4 4 5 3 1 2 1 2 3 4 3 3 5 4 3 3 6 3 2 5 5 4 7 8 9 9 10 9 11 10 8 8 8 5 5 5 5 6 5 4 4 4 4 4 3 3 2 3 3 4 5 5 5 5 5 5 5 5 5 5 5 5 5 6 6 5 7 6 7
7 8 4 4 3 5 2 3 4 2 6 5 4 2 2 1 1 2 5 2 1 2 3 1 2 3 4 5 5 4 4 6 8 6 4 5 4 7 8 8 9 9 8 9 9 9 10 10 9 8 7 8 8 8 7 5 5 5 5 5 4 4 4 4 6 5 5 5 5 6 6 6 6 6 5 4 5 5 5 5 5 6 5 7 7 7
4 4 4 8 3 4 1 3 3 4 7 5 4 4 1 1 1 3 4 2 1 2 2 4 4 4 4 3 4 3 5 5 7 7 8 8 9 7 9 11 11 10 10 9 9 11 12 12 10 10 7 7 9 11 7 6 6 5 7 6 5 5 5 6 6 5 6 6 5 5 5 5 5 5 4 4 5 5 6 6 6 6 5 6 6 8
5 2 2 0 2 3 4 3 7 3 1 2 6 2 1 1 3 3 2 4 1 5 3 3 5 4 4 3 1 2 2 7 8 8 4 6 8 8 8 11 14 14 13 11 8 8 9 10 9 9 10 10 12 11 8 5 5 6 6 7 4 4 6 7 8 7 6 6 6 6 5 4 4 4 4 6 6 5 6 5 5 6 6 6 5 6
2 0 3 9 5 4 6 4 3 6 2 2 2 4 1 3 2 1 5 2 2 4 3 4 4 5 3 4 1 3 4 6 9 11 9 6 8 10 10 9 11 11 12 12 12 11 10 9 8 10 11 11 10 9 7 4 5 7 7 6 4 7 9 8 6 6 7 6 6 6 5 3 4 5 5 5 5 5 5 5 6 7 7 8 7 7
1 2 1 3 2 5 5 6 8 4 4 3 2 1 2 2 1 4 3 3 3 4 4 5 5 5 3 4 4 5 7 8 8 9 11 11 9 10 10 11 11 11 11 10 11 9 9 9 10 10 10 11 11 10 7 5 6 7 7 5 7 9 7 4 6 6 6 6 6 4 3 4 4 4 5 5 5 6 7 6 6 6 7 7 7 9
7 4 5 5 2 3 1 1 1 4 0 1 1 2 1 3 3 4 2 2 5 5 5 4 5 5 3 4 5 8 9 9 9 10 11 12 10 11 12 11 11 11 12 12 12 11 9 8 10 11 11 11 10 8 6 4 6 7 6 6 9 7 6 6 5 6 6 5 4 3 3 4 4 5 4 5 5 6 8 7 6 7 6 8 8 9
3 1 2 4 5 4 4 4 4 4 5 3 3 2 0 3 3 4 1 4 4 4 4 4 4 5 3 5 8 8 8 9 11 11 11 11 11 11 10 11 11 11 11 11 10 11 9 9 10 11 11 11 9 7 4 3 6 5 5 9 8 6 5 5 6 4 3 3 3 3 4 4 5 5 5 6 7 7 8 8 7 7 6 8 8 8
4 4 3 4 2 4 3 3 3 3 4 2 3 1 3 2 3 4 3 5 4 5 3 2 4 5 5 7 9 9 9 10 12 12 12 13 12 12 11 12 12 12 12 12 13 11 7 9 11 12 12 11 5 3 1 2 4 5 5 5 4 5 5 6 5 3 4 5 4 4 5 4 5 6 6 6 6 7 7 8 7 8 7 6 7 8
1 1 1 3 4 2 2 3 1 0 1 3 3 3 4 4 4 3 4 4 4 6 4 4 5 7 7 6 7 8 9 11 12 12 12 11 11 12 11 11 11 11 11 10 10 10 8 8 9 10 12 7 0 2 1 1 1 3 7 6 6 6 6 5 5 5 6 4 3 4 4 5 6 6 7 7 6 6 6 7 6 7 8 8 8 8
2 0 1 2 2 2 3 1 3 0 4 5 6 5 8 6 5 4 4 5 5 5 6 6 8 8 9 8 9 10 12 12 11 12 12 11 11 12 12 12 11 11 11 11 11 8 8 8 9 10 9 5 3 3 3 4 6 5 6 8 9 8 6 5 5 5 3 3 3 4 4 5 6 6 6 5 5 5 5 5 6 6 8 7 8 8
4 2 2 1 0 3 6 4 4 5 6 8 5 9 13 10 3 2 5 5 5 6 6 8 6 7 7 8 10 10 11 11 11 12 12 11 11 11 11 11 12 11 10 8 8 7 7 8 9 10 5 4 6 4 2 3 5 7 7 8 8 7 5 4 3 3 3 4 3 5 5 5 7 7 6 6 6 6 6 5 6 6 7 7 7 8
3 2 2 1 1 5 6 8 5 5 10 11 9 6 5 5 5 6 7 7 6 6 8 8 7 9 7 10 9 9 10 13 12 12 11 11 11 11 12 12 11 10 10 10 9 6 7 7 9 7 4 5 5 3 3 4 6 5 6 7 6 3 2 2 1 1 3 4 4 5 4 5 5 6 6 6 6 6 6 6 7 8 8 8 7 7
1 8 2 2 4 4 10 8 1 3 9 8 4 7 9 6 4 7 8 8 8 9 10 10 12 9 7 8 9 9 10 12 13 11 11 11 11 12 13 12 11 10 10 8 6 6 7 7 6 5 5 5 3 3 4 4 3 5 5 5 3 1 1 0 1 2 4 4 4 5 5 5 5 5 5 6 6 7 8 8 10 9 8 9 9 10
7 4 6 5 5 11 8 3 4 7 9 11 9 8 10 7 4 7 10 11 11 11 10 9 11 13 13 11 6 8 10 11 14 12 10 10 11 11 11 10 11 10 9 7 6 7 7 6 4 5 4 3 2 3 4 6 5 3 2 2 1 0 1 1 2 3 5 5 5 6 5 5 6 6 5 5 5 6 7 8 6 7 10 11 12 11
Wind_Direction
150 137 208 219 220 210 213 190 205 222 184 306 238 278 251 259 278 276 253 245 157 310 273 222 233 244 260 264 234 186 183 249 246 233 226 215 217 222 225 221 221 221 232 177 189 181 186 185 177 173 175 181 184 187 186 185 188 185 182 178 187 183 175 169 168 172 170 176 185 193 192 197 192 190 193 195 187 184 184 170 166 161 161 160 161 161
68 220 250 222 218 209 215 212 244 289 209 229 274 343 299 230 274 282 295 283 120 210 282 335 290 262 257 282 193 159 173 218 211 225 232 226 222 223 223 226 220 227 130 151 170 185 174 178 174 169 174 175 181 197 186 190 189 185 183 185 181 171 177 180 177 176 180 179 181 175 188 179 179 183 178 188 193 189 176 162 158 155 155 154 155 154
22 236 251 212 212 181 176 182 195 203 244 221 208 210 311 279 233 278 280 313 291 114 259 29 226 252 260 273 251 186 200 219 207 211 226 227 245 240 233 232 230 215 217 180 201 185 186 179 176 176 181 191 194 185 190 191 182 186 186 189 179 177 178 184 181 173 182 183 180 176 177 179 172 198 182 180 179 169 159 158 154 149 147 147 148 156
306 270 258 221 179 175 248 184 189 224 275 217 154 166 240 233 43 305 292 351 7 127 291 178 226 275 295 289 249 248 224 279 220 218 231 218 233 235 233 231 229 232 218 208 200 197 186 183 183 184 190 190 182 180 186 185 189 187 189 187 183 183 181 180 185 184 181 174 174 175 162 158 144 162 123 89 108 138 132 139 144 143 145 144 141 145
216 228 186 92 131 150 231 218 157 177 256 229 184 207 250 267 231 180 248 345 317 14 129 38 23 330 348 0 327 332 307 246 228 223 248 244 231 235 259 242 216 228 219 219 210 199 187 189 196 194 187 168 183 187 188 187 189 190 190 188 184 182 184 183 185 179 162 139 119 106 93 101 89 67 94 110 81 129 138 123 149 157 148 146 139 143
274 264 206 271 254 194 197 222 205 168 255 307 224 200 214 226 253 244 281 352 8 326 344 72 31 318 300 310 272 284 344 286 317 254 246 242 275 305 250 234 212 212 200 206 205 202 201 199 190 186 183 184 189 191 194 189 189 185 188 185 184 180 183 182 184 170 164 168 158 151 154 165 171 157 155 167 160 159 163 173 153 142 169 138 131 141
218 292 140 192 193 184 188 216 229 148 178 29 270 201 214 222 216 314 333 80 342 8 304 14 133 261 327 324 310 328 327 292 259 242 264 269 265 251 248 246 227 214 208 206 199 192 193 197 190 195 192 190 190 198 179 178 186 187 185 185 183 181 183 181 179 172 172 172 178 180 184 183 185 181 191 167 166 167 171 136 153 159 195 137 135 139
150 298 116 65 136 146 26 297 240 147 121 242 239 158 167 151 183 220 180 199 206 233 339 33 101 149 320 295 308 306 317 311 322 296 262 266 260 247 259 255 235 215 206 199 200 199 198 194 192 194 194 190 195 170 164 178 179 185 185 182 183 181 180 184 179 180 186 183 188 193 194 187 187 187 179 173 168 154 152 151 156 157 168 134 135 137
149 77 130 169 111 121 230 217 161 153 152 218 249 159 160 173 194 173 133 143 139 51 295 333 335 65 278 268 326 0 11 341 323 312 311 302 273 250 255 254 242 223 212 202 201 199 194 194 196 193 193 188 159 167 177 180 179 174 173 177 177 182 183 188 189 188 197 181 192 192 199 229 218 183 158 151 135 145 150 148 157 154 161 135 135 140
299 159 235 143 132 254 236 240 162 169 197 276 138 82 68 60 62 128 118 110 8 59 289 308 8 118 289 283 348 333 30 342 318 316 312 311 314 305 280 268 257 242 227 221 220 199 193 190 189 181 150 157 171 143 140 146 154 167 167 178 183 191 192 192 189 192 185 139 204 213 210 198 184 140 108 126 142 145 155 157 171 168 161 149 140 143
269 304 158 132 220 212 221 251 173 196 199 105 103 93 25 42 21 11 65 101 66 44 261 246 300 130 306 289 308 9 347 300 321 323 324 323 326 324 309 286 282 265 245 241 227 175 153 147 145 141 148 144 125 142 148 155 167 168 177 184 191 200 192 187 195 191 194 165 173 238 242 236 191 157 140 137 141 143 160 171 177 176 177 165 164 156
336 327 130 253 178 260 162 239 35 47 354 148 120 126 12 297 8 33 343 38 103 275 257 256 239 87 116 322 353 318 307 326 306 304 317 326 327 325 327 325 307 301 317 328 87 74 92 97 108 131 144 155 157 153 165 172 171 180 186 185 195 196 192 191 193 188 189 180 177 169 198 203 209 175 163 166 169 180 177 177 179 186 172 176 163 161
343 93 299 300 306 27 17 81 322 16 14 94 86 54 172 265 33 277 5 294 208 183 172 244 181 36 124 170 260 314 325 333 344 290 310 317 319 326 332 329 315 308 358 95 107 122 132 148 154 163 167 166 167 179 179 182 183 182 183 187 192 202 194 196 193 193 191 187 191 185 183 185 188 186 176 176 181 181 177 176 174 166 179 175 162 183
282 297 8 322 358 86 101 90 329 23 346 97 149 136 102 81 48 250 280 259 301 296 259 253 298 231 232 274 209 272 289 278 283 299 293 335 332 335 333 331 327 328 14 114 128 141 151 160 167 171 166 163 180 196 197 191 185 182 183 185 196 207 193 195 191 197 194 197 197 190 185 178 174 180 182 189 182 182 183 174 165 174 191 192 189 181
347 341 325 0 19 325 71 137 174 181 118 306 121 137 192 136 161 254 204 223 213 206 265 268 49 221 118 214 245 242 259 251 240 354 29 36 17 352 333 345 351 357 14 82 135 156 170 168 163 158 146 160 199 202 199 199 199 182 184 184 196 199 195 190 196 194 198 198 197 192 196 173 171 175 180 190 184 181 184 173 176 179 183 191 189 182
225 210 257 249 257 332 43 315 102 92 43 239 160 91 69 290 151 220 211 148 214 24 356 212 210 169 134 198 237 248 260 20 17 18 19 16 10 8 5 356 345 340 346 0 143 178 180 169 165 174 186 201 209 199 187 191 191 193 196 191 196 198 187 188 192 199 196 197 168 185 189 174 187 187 187 192 198 189 185 179 183 184 185 189 174 182
7 98 299 320 1 42 14 354 13 103 189 263 55 66 212 170 107 99 110 22 88 53 247 248 323 318 303 331 317 351 24 15 14 16 17 10 4 14 10 348 336 334 331 307 241 215 196 190 198 199 204 218 223 203 197 195 188 182 133 102 47 32 19 348 339 328 342 185 175 190 192 187 187 193 194 199 205 184 153 191 202 191 190 172 172 177
149 230 300 37 8 349 71 155 53 58 139 68 68 241 92 120 117 126 200 347 60 124 261 19 188 295 32 228 334 5 19 5 7 4 2 6 8 9 1 348 326 318 315 301 282 261 222 213 211 214 218 224 229 195 162 168 163 151 147 139 139 153 162 149 129 31 347 324 270 201 202 197 199 201 203 202 186 166 188 206 196 189 180 187 181 178
101 15 297 269 250 278 342 29 351 347 57 80 174 218 118 275 294 326 90 338 291 275 284 316 310 254 184 278 354 11 9 355 353 353 6 0 359 354 347 346 333 321 331 318 305 287 265 243 234 229 234 197 194 190 185 166 153 163 173 160 165 190 187 169 157 150 168 202 218 217 203 196 196 202 207 203 188 183 191 199 189 188 194 179 178 176
36 158 297 298 282 308 16 51 16 304 327 22 43 21 356 95 133 104 196 178 121 245 62 284 45 212 214 171 174 20 353 337 351 1 356 341 340 341 340 339 337 331 313 306 302 292 284 278 289 304 246 225 212 194 177 172 178 186 180 177 186 176 168 160 167 176 188 195 200 210 204 200 194 194 195 195 186 189 192 193 186 187 186 190 175 182
264 72 234 272 287 29 23 0 126 269 332 335 26 349 358 24 228 103 41 68 179 176 177 189 310 281 251 204 138 105 13 340 347 348 341 347 343 340 343 343 343 339 334 313 295 296 293 287 288 285 265 263 260 216 190 190 192 188 176 196 193 184 184 189 190 194 211 200 203 204 207 205 199 195 189 186 189 190 192 186 186 189 192 165 184 179
64 18 248 313 14 17 209 240 165 227 191 190 138 98 204 359 30 151 259 11 54 97 214 137 254 265 263 157 111 125 318 315 2 4 354 346 345 344 343 344 343 340 339 345 334 305 292 293 299 306 313 328 286 265 243 235 204 198 201 201 196 197 205 205 207 205 217 235 242 233 246 266 251 198 184 178 177 186 186 185 191 195 177 185 201 181
131 145 93 33 276 266 240 294 337 283 117 111 104 21 109 107 104 91 136 271 3 277 119 131 316 269 249 126 100 100 336 14 26 28 359 344 343 343 341 342 342 342 343 344 346 342 326 293 289 291 279 240 221 226 226 230 228 231 229 219 216 213 222 216 222 228 211 205 211 206 193 170 178 179 183 180 180 186 189 196 202 196 192 203 199 161
80 63 38 308 315 303 330 305 51 35 64 34 13 36 52 33 29 159 170 191 169 309 333 335 236 248 274 87 58 349 310 30 42 29 3 347 347 349 348 345 347 346 344 348 353 359 351 337 320 322 313 303 289 281 264 247 247 250 241 243 244 241 263 329 327 296 263 251 247 193 169 171 167 168 181 191 199 200 203 198 196 177 188 194 169 181
53 305 111 37 6 342 340 356 1 333 47 63 81 343 84 67 53 159 85 12 246 222 181 138 247 279 252 74 32 17 8 8 4 0 23 358 345 347 348 346 349 351 355 356 353 350 2 8 0 344 335 329 327 328 328 318 318 329 327 333 315 313 299 185 154 10 354 10 13 7 5 6 333 246 212 208 200 211 205 206 203 196 194 195 202 199
84 187 88 118 162 220 246 283 266 297 279 287 253 345 14 50 13 9 324 26 148 283 147 199 248 257 273 333 45 23 11 356 342 346 344 0 356 350 347 350 354 2 360 357 359 3 0 359 7 7 357 346 338 333 336 340 343 347 350 356 2 357 20 51 63 70 78 94 136 186 208 212 235 246 247 236 224 220 218 216 207 213 216 198 200 193
121 53 100 152 150 185 209 217 256 75 4 27 285 310 294 349 51 100 105 138 212 228 224 241 232 302 295 327 13 9 7 335 322 336 344 342 345 349 355 355 358 1 7 6 2 359 7 12 7 4 7 4 357 345 335 346 8 20 26 11 28 75 85 97 127 156 280 289 265 248 227 213 225 227 249 275 289 311 308 305 313 305 291 300 166 193
59 56 266 135 181 202 189 195 186 123 212 247 274 285 283 171 167 164 164 225 186 355 277 196 177 212 265 133 344 1 348 329 328 337 342 347 349 344 337 332 357 13 12 12 18 18 15 7 7 9 7 8 8 12 14 12 14 23 30 19 6 14 16 19 50 31 13 11 343 350 354 6 18 11 12 16 20 29 30 34 39 35 30 45 50 44
136 137 240 111 257 236 207 222 226 219 205 224 229 238 252 255 198 210 229 208 156 194 245 233 96 283 282 120 305 270 293 301 303 314 322 314 299 327 353 5 9 12 15 24 19 19 20 20 15 15 16 15 19 24 22 22 22 24 27 26 23 25 15 12 51 45 42 43 41 33 35 43 45 47 52 51 52 51 49 51 49 52 49 46 48 39
88 273 199 187 220 236 253 245 242 230 260 268 237 231 231 207 229 228 251 204 173 236 248 283 275 252 270 249 304 284 279 259 281 277 281 303 335 337 347 8 13 8 10 14 16 18 24 27 31 31 34 33 34 34 35 34 34 38 43 39 41 45 32 51 51 56 56 57 50 49 52 60 60 61 63 62 56 50 55 48 37 35 33 30 24 29
96 276 151 206 286 260 247 259 327 235 193 242 258 248 230 224 236 237 234 253 218 282 278 273 289 294 271 230 296 352 334 328 4 2 353 330 333 346 359 5 3 5 357 356 358 4 11 29 35 39 43 43 44 46 52 53 45 50 52 52 56 57 53 60 59 53 49 49 47 54 59 60 67 70 62 67 65 55 50 50 54 53 18 15 360 332
58 269 47 60 316 297 318 45 305 92 172 207 256 263 245 220 234 237 210 220 159 221 239 3 309 267 277 308 326 322 356 0 340 309 308 308 321 332 353 352 348 346 345 340 339 343 356 4 11 20 31 24 38 48 73 80 75 67 74 72 80 100 95 82 82 80 72 60 58 61 59 62 67 71 70 76 77 90 107 104 92 64 313 293 272 255
163 124 137 142 271 266 275 59 37 19 358 321 272 232 230 206 182 218 253 214 207 161 202 264 247 205 226 264 318 283 173 235 244 253 275 291 290 294 309 316 314 313 315 313 317 325 318 320 320 324 328 326 320 84 234 156 117 124 149 130 161 141 111 115 126 133 132 146 144 148 136 123 112 102 100 137 151 161 140 146 233 260 260 257 255 257
110 139 171 156 169 245 301 360 11 31 309 244 234 205 147 168 180 182 233 209 234 141 209 187 195 196 220 256 283 325 313 246 201 233 206 220 269 294 287 273 277 279 284 279 270 272 280 284 283 285 285 277 273 267 263 272 186 186 200 158 214 68 111 108 149 153 166 154 162 164 147 131 137 179 184 185 185 174 188 222 231 235 231 244 252 249
134 112 168 149 136 268 314 353 24 290 243 241 290 274 269 176 158 169 127 255 324 127 122 72 50 331 264 248 248 256 274 279 275 263 271 238 215 239 276 301 300 295 285 284 288 282 272 263 270 276 277 277 279 297 319 316 326 328 299 271 184 226 227 330 346 321 307 245 137 129 153 164 181 197 196 208 221 223 216 221 237 249 253 244 237 239
163 129 157 143 150 68 72 102 129 244 247 288 314 38 82 77 94 97 52 321 250 196 161 138 253 283 302 311 314 287 279 293 299 271 252 271 217 250 303 306 305 304 301 292 289 291 287 283 274 270 268 254 269 277 271 257 260 269 263 290 300 300 309 316 358 247 218 138 165 177 179 180 193 200 206 210 210 212 224 227 229 234 240 242 240 239
148 106 122 245 162 194 199 163 223 300 298 266 87 152 160 165 181 152 197 262 210 214 151 169 304 301 315 297 296 316 321 345 6 314 299 274 310 309 285 288 289 291 286 287 283 282 284 279 274 270 272 276 265 262 257 243 242 247 249 250 246 251 261 253 247 222 202 201 199 195 194 198 204 212 214 211 212 222 228 232 237 238 228 243 244 248
157 158 232 125 259 124 173 306 336 350 267 285 247 290 324 253 141 164 100 294 297 265 199 182 235 276 298 306 316 317 348 13 330 300 285 307 304 310 313 304 299 290 284 283 289 284 284 283 278 274 266 274 278 265 257 247 240 242 247 245 240 235 246 244 249 235 222 222 216 209 205 206 206 215 221 218 230 238 240 236 237 241 236 254 265 264
41 72 138 153 203 63 108 174 222 211 246 212 210 225 265 264 131 117 70 286 232 234 248 177 246 258 243 269 302 357 20 334 280 273 293 304 311 316 315 309 303 294 287 281 281 288 288 284 276 275 281 277 277 272 260 251 244 245 252 255 249 236 238 240 242 239 230 232 226 224 220 220 217 227 239 254 261 263 272 274 276 278 274 266 266 269
94 72 86 96 217 190 149 170 244 209 228 173 219 275 237 153 119 73 339 287 14 290 246 185 227 253 278 293 308 10 310 296 293 292 281 291 300 303 301 301 303 304 301 297 288 273 274 278 284 280 271 267 263 266 271 258 243 245 250 255 247 238 238 234 229 227 227 232 232 228 230 219 221 230 237 253 264 270 270 277 287 281 278 275 270 273
116 26 122 204 192 202 163 256 336 301 276 274 233 249 235 188 90 138 214 230 236 250 249 194 225 235 225 268 254 273 231 231 266 283 291 290 298 295 290 286 287 290 292 293 294 301 304 291 268 259 259 258 261 266 268 255 241 250 252 250 236 240 238 235 233 229 225 229 238 242 243 247 231 249 260 260 270 279 285 282 280 285 285 285 283 280
338 109 300 74 165 192 202 184 231 247 239 191 277 192 289 75 210 210 230 200 192 247 243 196 219 244 210 230 230 234 256 261 270 284 291 287 274 273 280 282 285 286 283 281 284 288 284 285 281 277 276 265 258 258 256 248 244 254 261 267 256 249 250 258 247 234 230 233 239 255 271 264 269 261 269 282 283 285 279 275 274 276 281 279 279 281
203 141 218 186 207 53 88 166 319 268 355 113 182 38 37 121 226 199 241 282 206 228 217 228 203 243 197 260 255 260 272 281 279 276 277 279 281 280 282 286 284 281 283 288 291 285 279 277 279 273 269 273 269 260 255 234 249 258 267 266 260 261 258 250 245 234 231 243 263 268 269 276 282 286 291 286 285 285 284 284 285 282 281 282 282 280
207 125 248 251 176 177 163 181 201 212 188 197 111 169 223 183 188 167 165 281 269 212 229 224 240 221 235 261 278 281 273 278 285 281 278 277 276 277 280 281 279 278 279 273 267 270 277 275 272 276 275 273 268 261 263 236 255 265 265 266 265 270 271 266 253 243 249 255 252 261 274 281 294 293 291 287 289 288 287 289 288 287 283 283 281 283
229 165 185 203 254 141 202 209 238 218 202 241 132 184 207 232 177 177 193 227 251 278 214 219 260 270 267 269 275 275 282 272 270 272 277 275 276 276 275 273 274 275 276 278 280 284 277 262 269 275 279 278 316 327 277 222 243 271 277 266 272 275 275 272 263 241 245 249 259 271 275 297 297 291 289 284 282 280 279 282 284 285 278 272 273 273
289 152 141 87 268 265 253 188 204 86 258 286 251 196 207 229 251 214 212 224 234 230 203 221 248 256 265 256 259 271 261 267 275 280 276 270 268 271 272 273 273 270 269 273 279 277 271 271 271 273 274 287 264 250 324 309 196 267 275 291 306 297 283 275 262 246 242 246 257 272 298 303 293 284 275 270 263 256 261 266 276 281 281 273 269 270
271 215 121 179 275 37 277 22 121 267 283 263 265 240 204 187 210 193 198 207 230 227 235 238 241 252 255 262 255 259 269 271 273 274 274 275 275 274 275 276 275 274 278 282 279 285 290 289 285 280 278 274 259 281 327 345 310 283 285 288 286 284 282 273 255 248 248 264 293 302 292 281 278 278 275 273 278 274 278 282 278 275 277 273 274 275
318 156 63 236 145 155 240 251 261 282 273 282 300 326 319 315 298 211 208 220 238 252 246 250 246 253 253 261 256 255 261 268 270 272 275 276 275 278 280 279 278 283 282 274 278 283 282 280 277 278 262 258 263 248 218 251 266 269 269 269 268 271 267 256 238 229 253 280 280 284 284 280 282 291 299 298 296 294 289 275 270 274 273 277 278 281
173 37 239 153 134 277 298 282 269 304 295 292 306 295 258 239 263 293 292 283 270 264 266 260 229 238 247 251 256 260 269 274 271 267 270 274 278 278 276 275 278 277 282 288 289 292 285 286 283 269 231 259 271 308 328 276 269 276 277 275 269 241 202 208 234 260 278 279 290 286 284 281 286 291 294 296 289 279 267 278 287 283 282 271 261 265
212 247 169 46 313 296 244 256 83 327 285 286 275 268 274 267 245 267 278 283 282 285 284 288 290 278 250 240 250 254 257 267 272 271 266 265 267 272 276 278 279 280 281 279 285 289 289 281 259 255 259 265 289 284 257 262 290 313 325 320 325 174 165 330 330 308 292 287 281 280 289 297 298 296 289 287 290 295 294 272 267 271 276 289 290 288
188 196 137 175 171 240 249 224 197 225 256 267 268 268 270 277 271 272 273 277 282 279 277 280 286 292 293 283 249 235 252 260 267 269 268 266 265 264 268 272 276 280 281 287 301 299 297 282 255 248 269 289 267 273 311 322 316 307 308 318 283 60 46 24 317 300 295 299 299 298 298 297 297 289 286 288 295 297 295 303 279 251 272 282 297 305